This is the latest recevied weather packets stored in our database for station/object KS5S. If no packets are shown the sender has not sent any weather packets the latest 10 day(s).
| Time | Temp. | Humidity | Pressure | Rain* | Wind** | Luminosity | Snow |
|---|---|---|---|---|---|---|---|
| 1778073933 | 13.33° C | 80% | 1011.5 hPa | 0 mm | - | 59 W/m² | - |
| 1778073630 | 13.89° C | 79% | 1011.1 hPa | 0 mm | - | 71 W/m² | - |
| 1778073327 | 13.89° C | 79% | 1010.9 hPa | 0 mm | - | 103 W/m² | - |
| 1778073023 | 13.89° C | 79% | 1010.8 hPa | 0 mm | - | 117 W/m² | - |
| 1778072720 | 13.89° C | 79% | 1010.6 hPa | 0 mm | - | 110 W/m² | - |
| 1778072418 | 13.89° C | 80% | 1010.5 hPa | 0 mm | - | 63 W/m² | - |
| 1778072116 | 13.89° C | 81% | 1010.5 hPa | 0 mm | - | 39 W/m² | - |
| 1778071814 | 13.89° C | 81% | 1010.8 hPa | 0 mm | - | 36 W/m² | - |
| 1778071511 | 13.89° C | 81% | 1010.4 hPa | 0 mm | - | 37 W/m² | - |
| 1778071209 | 13.89° C | 80% | 1010.6 hPa | 0 mm | - | 40 W/m² | - |
| 1778070907 | 13.89° C | 80% | 1010.5 hPa | 0 mm | - | 34 W/m² | - |
| 1778070604 | 13.89° C | 80% | 1010.4 hPa | 0 mm | - | 30 W/m² | - |
| 1778070301 | 13.89° C | 81% | 1010.2 hPa | 0 mm | - | 29 W/m² | - |
| 1778069999 | 13.89° C | 82% | 1010.4 hPa | 0 mm | - | 26 W/m² | - |
| 1778069696 | 13.89° C | 81% | 1010.1 hPa | 0 mm | - | 21 W/m² | - |
| 1778069392 | 13.89° C | 81% | 1010 hPa | 0 mm | - | 12 W/m² | - |
| 1778069090 | 13.89° C | 81% | 1010.2 hPa | 0 mm | - | 8 W/m² | - |
| 1778068787 | 14.44° C | 81% | 1010.1 hPa | 0 mm | - | 8 W/m² | - |
| 1778068485 | 14.44° C | 81% | 1009.8 hPa | 0 mm | - | 5 W/m² | - |
| 1778068183 | 14.44° C | 81% | 1010 hPa | 0 mm | - | 3 W/m² | - |
| 1778067881 | 14.44° C | 81% | 1010.1 hPa | 0 mm | - | 2 W/m² | - |
| 1778067579 | 14.44° C | 82% | 1009.8 hPa | 0 mm | - | 1 W/m² | - |
| 1778067277 | 14.44° C | 82% | 1009.8 hPa | 0 mm | - | 1 W/m² | - |
| 1778066973 | 14.44° C | 82% | 1009.6 hPa | 0 mm | - | 0 W/m² | - |
| 1778066671 | 14.44° C | 82% | 1009.6 hPa | 0 mm | - | 0 W/m² | - |
* Rain latest hour (hover to see other rain measurements)
** Current wind speed in m/s (hover to see current wind gust speed)